Flag for U.S.A. Weather past 2 weeks in Myrtle Beach, South Carolina, U.S.A.

Now
86 °F

Sunny.


Feels Like: 87 °F
Forecast: 69 / 86 °F
Wind: 13 mph from North

Location: Myrtle Beach Air Force Base

Current Time: Aug 27, 2014 at 2:57:17 PM

Latest Report: Aug 27, 2014 at 1:45 PM


Visibility: 10 mi

Pressure: 29.99 "Hg

Humidity: 49%

Dew point: 64 °F

Location of Myrtle BeachLocation

Historic Weather in Myrtle Beach — Graph

°F

Myrtle Beach temperature yesterday

Maximum temperature yesterday: 86 °F (at 3:45 PM)
Minimum temperature yesterday: 66 °F (at 6:45 AM)
Average temperature yesterday: 74 °F

Past Weeks' High & Low Weather Summary

 TemperatureHumidityPressure
High93 °F (Aug 17, 2:45 PM)94% (Aug 17, 3:55 AM)30.07 "Hg (Aug 17, 3:55 AM)
Low64 °F (Aug 25, 5:55 AM)41% (Aug 17, 1:45 PM)29.80 "Hg (Aug 18, 5:45 PM)
Average79 °F75%29.96 "Hg
* Reported Aug 12 1:45 PM — Aug 27 1:45 PM, Myrtle Beach, Weather by CustomWeather, © 2014

Note: Actual official high and low records may vary slightly from our data, if they occured in-between our weather recording intervals... More about our weather records

Advertising

Myrtle Beach weather history for previous 24 hours

 ConditionsComfort  
Time TempWeatherWind HumidityBarometerVisibility
1:45 PM
Aug 27
86 °FSunny.13 mph49%29.99 "Hg10 mi
12:45 PM84 °FSunny.12 mph51%30.00 "Hg10 mi
11:45 AM82 °FSunny.13 mph55%30.02 "Hg10 mi
10:53 AM81 °FSunny.12 mph58%30.02 "Hg10 mi
9:50 AM75 °FSunny.14 mph65%30.02 "Hg10 mi
8:45 AM72 °FSunny.9 mph73%30.02 "Hg10 mi
7:45 AM68 °FSunny.12 mph78%30.01 "Hg10 mi
6:45 AM66 °FClear.9 mph83%30.00 "Hg10 mi
6:35 AM66 °FClear.8 mph83%30.00 "Hg10 mi
5:56 AM66 °FClear.9 mph83%29.99 "Hg10 mi
5:55 AM66 °FClear.9 mph83%29.99 "Hg10 mi
5:35 AM68 °FClear.8 mph78%29.98 "Hg10 mi
5:15 AM68 °FClear.8 mph78%29.98 "Hg10 mi
4:55 AM68 °FClear.9 mph78%29.98 "Hg10 mi
4:35 AM68 °FClear.8 mph83%29.98 "Hg10 mi
4:15 AM68 °FClear.8 mph83%29.99 "Hg10 mi
3:55 AM70 °FClear.7 mph78%29.99 "Hg10 mi
3:35 AM70 °FClear.7 mph78%30.00 "Hg10 mi
3:15 AM70 °FClear.6 mph78%30.00 "Hg10 mi
2:55 AM70 °FClear.7 mph78%30.01 "Hg10 mi
2:35 AM70 °FClear.8 mph78%30.01 "Hg10 mi
2:15 AM70 °FClear.9 mph78%30.01 "Hg10 mi
1:55 AM72 °FClear.9 mph73%30.02 "Hg10 mi
1:35 AM72 °FClear.9 mph73%30.02 "Hg10 mi
1:15 AM72 °FClear.9 mph73%30.03 "Hg10 mi
12:55 AM72 °FClear.7 mph73%30.03 "Hg10 mi
12:35 AM72 °FClear.7 mph73%30.04 "Hg10 mi
12:15 AM72 °FClear.8 mph73%30.04 "Hg10 mi
11:55 PM
Aug 26
72 °FClear.8 mph73%30.04 "Hg10 mi
11:35 PM73 °FClear.7 mph74%30.04 "Hg10 mi
11:15 PM73 °FClear.7 mph74%30.04 "Hg10 mi
10:55 PM73 °FClear.9 mph74%30.04 "Hg10 mi
8:45 PM77 °FSunny.12 mph69%30.03 "Hg10 mi
6:45 PM82 °FPassing clouds.13 mph55%30.02 "Hg10 mi
5:45 PM84 °FPartly sunny.13 mph51%30.02 "Hg10 mi
4:45 PM86 °FPartly sunny.13 mph49%30.02 "Hg10 mi
3:45 PM86 °FPartly sunny.12 mph49%30.03 "Hg10 mi
2:45 PM84 °FScattered clouds.14 mph51%30.04 "Hg10 mi
Weather by CustomWeather, © 2014

See weather overviewHow to use our weather pages